Location: Faicchio
(41.2833°N, 14.4833°E)
Time: 07:18:42
(UTC+00:00)

Cosmos 1455 Rocket - Pass Details

Date: 15 June 2025
Orbit: 598 x 624 km, 82.5° (Epoch: 16 July)

Event Time Altitude Azimuth Distance (km) Brightness Sun altitude
Rises 01:16:50 0° 350° (N) 2,881 7.2 -18.3°
Reaches altitude 10° 01:19:05 10° 349° (N) 1,967 6.3 -18.1°
Maximum altitude 01:23:25 77° 265° (W) 625 2.9 -17.6°
Enters shadow 01:25:26 31° 183° (S) 1,067 3.8 -17.4°
